Voltar ao catálogo

RASSVET-3 5

AtivoCiênciaPO
NORAD 68364·PAYLOAD·🇷🇺 Russia

Lançado Mar 23, 2026 de Plesetsk Cosmodrome

Loading…

Próximas Passagens (próximas 24 horas)

TLE

AtualizadoSource: Space-Track

Época: Sep 14, 2026, 21:31 UTC

1 68364U 26061E   26257.89665059  .00000661  00000-0  30621-4 0  9991
2 68364  82.2933 283.5767 0002304  69.8090 290.3391 15.18402071 27000

Acompanhe RASSVET-3 5 em tempo real com AllMySat

Download on the App Store